Location: Dzierzno
(50.6159°N, 19.2852°E)
Time: 19:56:51
(UTC+00:00)

CZ-2D R/B - Pass Details

Date: 18 November 2025
Orbit: 525 x 597 km, 98.0° (Epoch: 10 December)

Event Time Altitude Azimuth Distance (km) Brightness Sun altitude
Rises 16:10:03 0° 143° (SE) 2,798 6.7 -12.1°
Reaches altitude 10° 16:12:16 10° 136° (SE) 1,912 5.8 -12.4°
Maximum altitude 16:16:08 39° 68° (ENE) 903 3.9 -13.0°
Drops below altitude 10° 16:20:05 10° 359° (N) 1,948 6.0 -13.6°
Sets 16:22:22 0° 352° (N) 2,859 6.9 -14.0°
